Location: Hermaringen
(48.5952°N, 10.2585°E)
Time: 05:47:29
(UTC+00:00)

Transit 2A - Pass Details

Date: 19 February 2026
Orbit: 590 x 954 km, 66.7° (Epoch: 14 March)

Event Time Altitude Azimuth Distance (km) Brightness Sun altitude
Rises 17:51:26 0° 322° (NW) 3,625 10.0 -11.4°
Reaches altitude 10° 17:54:40 10° 337° (NNW) 2,652 9.0 -11.9°
Maximum altitude 17:59:24 22° 27° (NNE) 1,861 7.7 -12.7°
Enters shadow 18:02:25 16° 65° (ENE) 2,161 7.8 -13.2°
